GEFSMA_con_cape1000_168.txt.gz
Probability
97 100 97 97 94 90 90 90 81 77 65 58 42 52 42 48 55 45 45 90 87 87 68 65 65 52 52 48 52 55 52 48 42 42 39 35 29 23 23 26 19 16 16
100 100 97 94 90 87 87 87 81 87 84 74 52 58 58 55 65 55 45 84 87 84 74 65 65 58 55 52 45 61 55 48 58 48 45 39 35 29 19 23 26 26 19
97 97 94 97 87 87 87 84 74 87 81 71 65 52 58 65 58 74 55 52 68 84 84 81 71 65 58 55 45 58 42 65 55 42 48 52 52 42 35 29 29 29 19
90 94 90 97 90 90 94 87 87 84 77 74 81 65 58 77 58 68 77 71 61 32 61 81 84 84 65 52 58 55 61 71 74 65 52 52 48 52 45 39 45 39 39
90 90 90 94 87 87 90 71 77 81 74 74 71 81 58 55 61 55 58 68 71 52 42 68 97 90 81 65 61 65 68 71 74 74 65 61 65 61 48 48 55 58 58
87 87 84 84 84 81 77 77 81 77 77 68 39 42 58 61 77 74 58 52 68 65 61 39 55 61 84 87 81 74 71 58 71 68 65 65 71 71 68 58 52 48 42
87 87 81 84 87 81 81 77 77 77 68 71 58 65 52 55 61 65 68 61 42 39 48 42 35 26 29 74 81 81 74 68 71 61 65 68 71 68 68 71 58 45 42
84 77 84 84 84 90 77 71 74 74 71 58 65 45 23 35 48 19 55 61 42 45 39 39 58 58 39 13 6 71 77 77 65 65 71 74 68 65 77 74 71 39 19
84 84 84 81 84 84 77 71 71 68 61 65 65 52 26 16 19 39 42 35 48 48 42 35 45 58 48 35 23 10 77 71 68 65 68 68 71 58 58 55 55 35 29
84 87 84 74 81 74 81 74 68 65 71 55 58 71 71 58 19 29 39 35 48 52 39 10 10 52 42 52 32 19 32 35 58 55 61 68 65 55 52 45 39 39 32
77 74 74 77 81 84 81 74 81 71 74 58 52 55 52 65 52 35 13 13 26 35 42 39 29 35 35 35 42 16 16 16 13 39 55 52 58 48 45 35 26 29 32
77 74 74 81 81 74 81 71 68 74 71 68 61 61 52 35 32 35 19 23 19 26 32 39 32 39 39 26 19 13 10 0 0 6 26 32 45 42 35 35 26 23 26
74 68 71 81 74 74 74 71 71 71 68 71 58 58 55 52 39 35 19 19 26 23 32 35 32 45 26 39 26 3 10 0 0 0 0 3 13 16 29 26 23 23 32
71 74 77 74 77 77 71 74 71 71 68 68 48 58 61 45 39 42 35 23 6 6 16 16 39 26 29 23 16 0 0 0 0 0 0 0 0 0 0 0 0 3 13
68 68 68 68 74 71 74 68 68 68 71 58 61 68 58 42 39 42 48 45 23 10 13 16 32 26 35 32 3 0 13 0 0 0 0 0 0 0 0 0 0 0 0
58 61 65 58 68 61 61 65 65 65 61 61 68 61 65 48 42 52 35 35 39 19 13 19 26 32 26 0 0 6 26 0 0 0 0 0 0 0 0 0 0 0 0
68 61 61 55 58 52 58 58 65 58 55 55 52 55 55 48 48 42 42 32 42 35 16 13 23 32 39 26 6 16 29 3 0 0 0 0 0 0 0 0 0 0 0
61 61 58 52 48 39 42 42 45 45 42 42 35 45 42 26 42 35 42 23 19 39 29 6 13 29 23 32 29 29 6 3 3 0 0 0 0 0 0 0 0 0 0
61 52 45 35 35 35 39 39 42 42 39 35 26 35 35 32 32 32 39 26 19 6 23 10 6 13 19 23 32 26 10 13 0 0 0 0 0 0 0 0 0 0 0
55 48 45 39 23 23 23 32 32 32 26 32 29 35 29 26 26 32 23 23 16 13 13 16 6 10 19 26 29 16 6 13 10 0 0 0 0 0 0 0 0 0 0
39 35 32 32 23 23 13 13 29 19 29 29 29 29 19 19 16 3 3 19 16 16 13 10 10 6 6 6 3 3 3 3 6 6 10 3 0 0 0 0 0 0 0
42 45 29 23 13 10 3 0 6 16 26 26 19 26 23 10 0 0 0 0 0 3 6 10 3 3 3 6 6 3 0 0 0 3 6 3 0 0 0 0 0 0 0
45 39 26 16 23 10 3 0 0 6 19 23 26 26 10 0 0 3 0 0 0 0 0 0 0 3 3 3 3 0 0 0 0 0 0 0 0 0 0 0 0 0 0
32 32 29 23 23 6 0 0 0 0 10 13 13 13 16 13 3 3 3 0 3 3 0 0 0 0 0 0 3 3 3 0 0 0 0 0 0 0 0 0 0 0 0
29 26 29 26 19 6 0 0 0 3 10 6 10 3 3 3 3 0 3 3 3 3 0 0 0 0 0 0 0 0 0 0 0 0 0 0 0 0 0 3 0 0 0
26 13 10 10 16 16 0 0 0 0 3 3 6 3 0 0 0 0 0 3 3 3 3 0 0 0 0 0 0 0 0 0 0 0 0 0 0 0 0 3 3 0 0

GEFSMA_con_cape1000_174.txt.gz
Probability
29 23 32 29 26 10 6 3 0 0 0 0 6 6 0 3 3 10 42 94 94 90 84 68 68 65 65 65 61 55 55 45 52 58 61 55 45 52 39 29 19 16 16
26 26 23 23 16 10 3 3 0 0 3 6 6 3 3 3 6 10 19 71 87 87 87 81 71 68 55 48 55 61 65 58 58 61 58 55 48 48 35 29 23 19 16
29 23 16 16 16 13 3 0 0 0 3 3 3 3 6 3 3 6 13 26 48 84 90 87 84 81 71 61 55 61 58 61 61 58 58 55 48 52 45 35 39 29 19
32 23 16 19 23 10 3 0 0 3 0 0 0 0 3 3 3 6 6 10 13 29 71 90 90 94 87 68 65 68 68 68 61 52 48 48 48 58 55 48 39 32 19
39 23 23 13 13 6 3 3 0 0 0 0 3 0 3 3 3 3 6 6 6 6 13 45 97 90 87 84 81 68 61 61 65 55 45 42 29 35 52 42 45 39 23
48 26 19 10 16 6 6 0 0 3 0 0 0 3 0 0 0 0 3 3 3 3 6 19 26 61 84 90 94 87 77 71 68 55 48 48 42 48 45 35 29 23 26
42 23 23 10 10 6 6 3 0 0 0 0 0 0 0 0 0 0 0 0 0 3 3 3 3 6 10 87 90 90 87 84 77 68 61 65 61 61 52 45 39 26 19
32 26 13 16 10 6 6 6 0 0 0 0 0 0 0 0 0 0 0 0 0 0 3 3 0 0 3 6 16 65 87 87 77 71 74 68 71 71 58 58 52 32 10
29 26 16 13 10 3 3 3 0 0 0 0 0 0 0 0 0 0 0 0 0 0 0 6 0 0 0 0 0 6 61 84 81 74 81 77 71 61 52 61 55 32 16
39 26 16 13 10 3 3 3 3 0 0 0 0 0 0 0 0 0 0 0 0 0 0 3 6 0 0 0 0 0 10 42 61 81 84 74 71 68 52 48 42 42 35
32 39 32 16 13 6 3 3 3 3 3 0 0 0 0 0 0 0 0 0 0 0 0 0 0 3 0 0 0 0 3 6 16 32 61 74 68 61 52 39 26 29 29
32 35 35 23 13 10 6 3 3 3 3 3 3 0 0 0 0 0 0 0 0 0 0 0 0 0 0 0 0 0 0 0 0 0 13 29 58 55 55 29 29 23 16
26 29 42 23 16 10 6 6 6 3 3 3 3 3 0 0 0 0 0 0 0 0 0 0 0 0 0 0 0 0 0 0 0 0 0 3 6 26 35 29 29 32 19
23 19 26 19 19 16 16 6 6 3 3 3 3 3 3 0 0 0 0 0 0 0 0 0 0 0 0 0 0 0 0 0 0 0 0 0 0 0 3 3 3 6 10
19 19 13 13 10 10 10 6 6 3 3 3 3 3 3 3 0 0 0 0 0 0 0 0 0 0 0 0 0 0 0 0 0 0 0 0 0 0 0 0 0 0 0
16 16 10 6 13 10 6 6 6 3 3 3 3 3 3 3 3 0 0 0 0 0 0 0 0 0 0 0 0 0 0 0 0 0 0 0 0 0 0 0 0 0 0
16 16 16 13 10 6 6 3 6 6 3 0 0 0 0 3 0 0 0 0 0 0 0 0 0 0 0 0 0 0 0 0 0 0 0 0 0 0 0 0 0 0 0
13 16 13 13 6 3 6 3 3 3 3 3 3 0 0 0 0 0 0 0 0 0 0 0 0 0 0 0 0 0 0 0 0 0 0 0 0 0 0 0 0 0 0
6 6 6 6 10 10 3 3 3 3 3 3 3 0 0 0 0 0 0 0 0 0 0 0 0 0 0 0 0 0 0 0 0 0 0 0 0 0 0 0 0 0 0
6 3 3 3 3 3 3 0 0 3 3 3 3 0 0 0 0 0 0 0 0 0 0 0 0 0 0 0 0 0 0 0 0 0 0 0 0 0 0 0 0 0 0
3 3 3 3 3 3 3 3 3 3 3 0 0 0 0 0 0 0 0 0 0 0 0 0 0 0 0 0 0 0 0 0 0 0 0 0 0 0 0 0 0 0 0
3 3 3 3 3 3 3 3 0 3 0 0 0 0 0 0 0 0 0 0 0 0 0 0 0 0 0 0 0 0 0 0 0 0 0 0 0 0 0 0 0 0 0
3 3 3 3 3 3 3 0 0 0 0 0 0 0 0 0 0 0 0 0 0 0 0 0 0 0 0 0 0 0 0 0 0 0 0 0 0 0 0 0 0 0 0
3 3 3 3 3 3 3 0 0 0 0 0 0 0 0 0 0 0 0 0 0 0 0 0 0 0 0 0 0 0 0 0 0 0 0 0 0 0 0 0 0 0 0
3 3 3 3 0 0 0 0 0 0 0 0 0 0 0 0 0 0 0 0 0 0 0 0 0 0 0 0 0 0 0 0 0 0 0 0 0 0 0 0 0 0 0
0 3 0 0 0 0 0 0 0 0 0 0 0 0 0 0 0 0 0 0 0 0 0 0 0 0 0 0 0 0 0 0 0 0 0 0 0 0 0 0 0 0 0

GEFSMA_con_cape1000_180.txt.gz
Probability
23 26 23 23 19 10 6 3 0 0 0 3 6 13 10 6 13 19 42 81 87 87 71 58 61 68 71 52 55 55 52 52 48 58 52 42 39 32 19 13 10 6 10
19 16 13 13 13 3 0 0 0 0 3 3 3 3 6 10 10 19 26 61 90 87 84 68 68 58 68 65 58 52 48 45 52 55 52 48 48 48 32 10 13 10 3
16 16 13 13 6 0 0 0 0 0 3 3 6 6 10 10 13 13 16 39 61 74 81 81 77 68 55 65 52 55 61 58 55 52 48 48 45 42 35 23 19 19 10
16 16 13 10 0 3 3 3 3 3 3 0 3 0 10 6 6 13 13 13 29 42 65 81 87 84 71 58 61 58 65 68 58 52 42 42 52 48 45 35 23 23 10
26 16 16 13 0 3 3 3 3 3 3 3 3 3 3 6 6 10 10 10 10 19 23 35 77 87 74 65 71 68 68 68 61 55 42 29 26 35 32 29 23 26 16
23 16 13 6 3 0 0 0 3 0 3 3 0 0 0 0 3 3 6 10 6 10 13 16 35 48 68 74 77 77 77 68 58 55 45 35 26 32 29 26 19 19 16
19 19 16 3 3 0 3 0 0 0 0 0 0 0 0 0 0 0 0 3 3 6 13 13 16 16 26 42 71 77 81 71 74 68 65 58 52 48 35 26 19 16 10
19 19 13 10 10 3 3 3 3 0 0 0 0 0 0 0 0 0 0 0 0 0 3 3 6 10 6 10 10 35 68 71 71 77 74 71 65 61 52 42 29 23 10
19 19 16 10 10 3 3 3 3 0 0 0 0 0 0 0 0 0 0 0 0 0 0 0 0 3 3 3 6 0 29 55 61 68 71 71 61 52 48 39 32 29 19
16 16 16 10 10 6 3 3 3 3 3 0 0 0 0 0 0 0 0 0 0 0 0 0 0 0 3 3 0 0 0 16 29 48 68 77 65 48 42 35 29 26 29
13 13 19 10 10 6 3 3 3 3 0 0 0 0 0 0 0 0 0 0 0 0 0 0 0 0 3 0 0 0 0 0 3 16 35 65 68 58 48 42 42 32 32
13 13 16 10 6 10 6 3 3 3 3 3 3 0 0 0 0 0 0 0 0 0 0 0 0 0 6 3 0 0 0 0 0 0 3 19 35 42 52 42 39 23 23
16 13 6 6 6 0 0 3 0 3 3 3 3 3 3 0 0 0 0 0 0 0 0 0 0 0 0 3 3 0 0 0 0 0 0 0 3 3 19 29 32 26 23
13 10 10 6 6 3 3 3 3 3 3 0 3 3 3 3 3 0 0 0 0 0 0 0 0 0 0 3 0 0 0 0 0 0 0 0 0 0 0 0 3 3 3
6 3 3 6 6 6 6 3 0 0 0 0 0 0 0 3 3 3 0 0 0 0 0 0 0 0 0 0 0 0 0 0 0 0 0 0 0 0 0 0 0 0 0
6 3 3 3 3 3 3 3 3 0 0 0 0 0 0 0 0 3 3 0 0 0 0 0 0 0 0 0 0 0 0 0 0 0 0 0 0 0 0 0 0 0 0
10 13 6 3 3 3 3 3 3 3 3 0 0 0 0 0 0 0 0 0 0 0 0 0 0 0 0 0 0 0 0 0 0 0 0 0 0 0 0 0 0 0 0
10 6 10 10 10 10 3 3 3 3 0 0 0 0 0 0 0 0 0 0 0 0 0 0 0 0 0 0 0 0 0 0 0 0 0 0 0 0 0 0 0 0 0
3 3 3 3 3 6 6 6 3 3 3 3 3 0 0 0 0 0 0 0 0 0 0 0 0 0 0 0 0 0 0 0 0 0 0 0 0 0 0 0 0 0 0
10 6 3 3 3 3 3 3 3 3 3 0 3 0 0 0 0 0 0 0 0 0 0 0 0 0 0 0 0 0 0 0 0 0 0 0 0 0 0 0 0 0 0
6 6 6 3 3 3 3 3 3 3 3 3 0 0 0 0 0 0 0 0 0 0 0 0 0 0 0 0 0 0 0 0 0 0 0 0 0 0 0 0 0 0 0
6 6 6 6 3 3 3 0 0 0 0 0 0 0 0 0 0 0 0 0 0 0 0 0 0 0 0 0 0 0 0 0 0 0 0 0 0 0 0 0 0 0 0
6 6 6 6 6 0 0 0 0 0 0 0 0 0 0 0 0 0 0 0 0 0 0 0 0 0 0 0 0 0 0 0 0 0 0 0 0 0 0 0 0 0 0
6 6 6 3 3 0 0 0 0 0 0 0 0 0 0 0 0 0 0 0 0 0 0 0 0 0 0 0 0 0 0 0 0 0 0 0 0 0 0 0 0 0 0
3 3 3 3 3 3 0 0 0 0 0 0 0 0 0 0 0 0 0 0 0 0 0 0 0 0 0 0 0 0 0 0 0 0 0 0 0 0 0 0 0 0 0
3 3 3 3 3 3 0 0 0 0 0 0 0 0 0 0 0 0 0 0 0 0 0 0 0 0 0 0 0 0 0 0 0 0 0 0 0 0 0 0 0 0 0

GEFSMA_con_cape1000_186.txt.gz
Probability
71 65 84 84 65 55 61 61 48 61 55 48 39 39 29 29 26 29 68 68 68 71 68 61 61 61 68 58 58 52 45 55 48 48 29 32 32 19 13 13 13 10 6
74 74 84 84 61 55 45 35 32 55 48 48 42 42 35 23 29 32 42 68 68 77 65 58 55 58 71 58 61 52 45 42 55 48 39 29 32 32 26 10 10 10 3
84 81 58 65 48 52 61 65 48 48 55 42 35 29 32 32 29 32 35 45 58 65 71 65 65 58 52 61 55 52 55 52 52 52 48 35 42 39 26 23 10 19 19
81 87 58 55 61 48 48 58 58 45 52 45 42 32 23 35 32 32 35 45 45 39 65 68 65 65 65 61 52 58 58 55 58 58 58 45 42 35 35 23 19 16 19
81 71 71 81 71 55 52 39 42 39 45 55 32 42 26 26 32 26 26 32 35 42 52 68 71 81 68 65 74 77 77 77 61 55 42 42 35 39 35 29 26 23 10
77 74 71 90 61 55 61 68 74 74 71 55 19 23 29 29 35 26 35 23 35 32 23 29 55 55 74 81 74 68 68 71 68 58 45 45 35 35 42 29 26 19 13
84 90 71 90 90 61 68 55 61 65 52 61 45 42 32 19 35 42 39 29 19 23 48 48 42 45 55 52 55 77 61 61 71 65 58 52 45 39 35 29 23 13 13
90 68 87 87 94 97 81 68 77 68 45 52 42 39 35 26 35 13 32 32 23 19 23 26 45 55 45 48 35 48 68 65 61 81 81 74 61 58 45 39 35 29 16
84 81 81 84 94 84 74 77 74 71 55 48 45 32 29 32 23 13 16 26 39 32 26 26 32 48 48 52 61 19 52 65 71 68 71 77 65 58 45 39 35 29 23
84 81 84 84 94 77 84 71 58 68 65 48 52 58 48 29 39 10 10 10 16 35 35 16 19 26 45 39 55 29 16 26 32 52 68 68 71 61 42 35 39 32 26
84 84 84 87 87 87 81 81 68 65 58 58 48 52 48 52 32 23 29 29 26 16 23 19 23 23 23 35 61 29 10 0 0 19 39 55 65 68 55 42 35 35 23
87 74 77 84 94 90 87 84 77 61 58 65 65 52 45 45 45 35 29 29 32 10 16 32 29 23 19 16 16 3 3 0 0 0 0 19 39 52 48 42 35 39 35
81 84 74 84 84 87 84 81 84 65 55 65 65 55 39 32 35 26 29 29 16 13 23 16 26 26 19 19 26 3 3 0 0 0 0 0 0 3 10 26 35 35 35
74 77 77 84 74 71 65 81 65 68 68 68 42 58 65 39 39 35 48 32 19 23 16 6 16 23 26 29 13 0 10 0 0 0 0 0 0 0 0 0 3 3 13
71 77 77 74 68 68 74 81 71 74 77 68 58 55 55 52 48 42 39 42 32 16 10 6 10 10 29 35 6 16 26 0 0 0 0 0 0 0 0 0 0 0 0
71 68 65 61 61 65 68 77 68 68 71 58 65 55 52 39 39 45 29 32 39 29 10 3 29 19 35 10 6 16 16 10 0 0 0 0 0 0 0 0 0 0 0
71 71 68 61 58 58 58 71 48 55 58 52 29 29 29 32 35 39 32 32 29 19 19 6 16 16 42 35 26 26 13 16 16 0 0 0 0 0 0 0 0 0 0
71 65 61 65 58 52 48 45 42 32 35 42 29 23 29 26 35 32 39 32 29 35 19 13 19 13 42 32 26 32 6 6 6 0 0 0 0 0 0 0 0 0 0
48 45 55 55 55 48 45 45 42 29 23 29 23 23 29 29 32 29 29 32 26 16 13 10 10 29 23 16 26 16 3 16 3 0 0 0 0 0 0 0 0 0 0
45 48 48 48 45 42 39 32 29 29 26 26 26 23 23 16 19 23 13 23 26 23 16 16 6 16 13 13 13 16 10 10 6 3 0 0 0 0 0 0 0 0 0
42 48 45 39 39 32 23 32 23 19 23 23 23 16 16 10 10 10 6 16 16 19 10 13 10 10 10 10 0 0 3 6 10 3 10 6 6 0 0 0 0 0 0
42 39 39 35 32 19 3 0 10 23 23 16 19 19 13 10 0 0 0 0 0 3 6 6 3 0 0 3 16 3 3 6 6 13 6 10 6 10 6 0 0 0 0
35 35 35 32 32 10 3 0 0 6 16 13 13 10 6 6 0 6 0 0 0 0 0 0 0 0 0 0 6 6 6 6 6 6 10 13 13 6 3 0 0 0 0
35 29 29 26 16 10 3 0 0 0 6 6 10 6 10 6 3 6 6 0 0 0 0 0 0 0 3 3 3 3 3 3 3 3 3 3 3 6 0 3 0 0 0
29 26 19 16 13 10 3 0 0 10 3 6 6 3 3 6 3 0 0 3 0 0 0 0 0 0 0 0 0 0 0 0 0 3 3 0 3 3 0 0 0 0 0
19 16 13 10 10 6 3 0 0 3 0 0 6 3 0 0 0 0 0 3 3 0 0 0 0 0 0 0 0 0 0 0 0 0 0 0 0 0 0 0 0 0 0

GEFSMA_con_cape1000_192.txt.gz
Probability
97 87 97 97 87 87 87 84 87 81 74 68 48 32 39 35 45 29 39 81 81 87 71 58 55 61 45 39 39 48 39 42 45 48 35 29 19 26 13 6 10 13 16
97 97 90 100 97 94 90 87 81 81 74 81 65 48 42 45 45 48 35 68 81 87 84 65 52 52 39 42 52 55 39 48 58 52 48 35 29 29 32 19 13 10 13
100 100 97 97 94 90 87 87 77 87 81 68 71 68 55 55 48 45 52 42 48 77 81 77 71 61 55 52 48 55 55 55 58 65 58 42 39 32 35 29 29 19 13
97 100 94 100 97 94 94 94 94 84 87 81 87 81 68 74 58 58 61 61 55 32 52 71 71 74 71 55 68 58 58 61 61 58 61 58 42 32 32 26 26 19 16
87 97 97 100 97 94 87 74 87 87 90 87 77 90 71 61 74 45 58 65 68 65 52 48 84 84 71 74 71 68 68 61 61 65 58 52 52 58 42 32 26 23 16
84 97 97 100 94 97 94 90 87 90 94 87 48 55 81 71 81 74 52 48 65 58 55 42 42 52 84 81 84 84 77 71 71 61 61 58 55 58 42 26 23 19 23
90 94 90 97 100 97 97 87 87 87 84 87 77 74 61 45 65 81 68 58 45 58 55 65 52 42 35 68 77 81 84 71 81 74 68 58 55 52 39 32 23 16 13
90 84 97 97 100 100 94 90 94 87 84 87 84 74 45 39 58 10 55 65 48 58 48 29 61 65 55 32 16 65 81 77 84 77 68 65 52 45 45 42 29 29 16
90 94 94 90 97 97 97 94 94 87 87 84 84 77 55 32 39 39 45 35 58 65 42 35 45 58 58 58 39 16 58 65 81 77 74 71 65 52 45 39 35 23 13
87 87 87 90 90 87 100 97 87 87 87 74 77 81 77 61 42 29 29 32 26 42 32 26 19 48 52 48 48 29 32 35 52 68 65 68 68 45 45 42 35 32 26
87 81 87 84 94 90 100 94 94 87 74 68 71 68 65 61 55 23 3 16 19 23 23 32 29 39 35 45 48 32 29 10 16 39 52 52 58 55 45 42 35 35 35
84 81 81 81 90 87 97 97 97 84 81 68 65 58 71 55 45 29 6 13 16 19 29 29 32 26 29 29 16 13 13 0 0 0 6 16 29 39 39 35 35 29 32
81 77 74 84 84 90 94 94 90 81 74 74 74 61 58 55 48 35 23 10 10 19 23 23 26 19 23 19 13 10 6 0 0 0 0 0 0 3 16 26 23 16 19
81 74 81 81 84 81 81 87 71 81 74 71 68 65 58 52 45 45 35 13 16 13 13 6 13 13 10 13 6 0 3 0 0 0 0 0 0 0 0 0 3 6 6
74 77 77 77 74 71 71 81 71 77 71 58 52 52 55 42 48 48 32 26 16 3 0 0 13 16 19 19 6 0 6 0 0 0 0 0 0 0 0 0 0 0 0
81 77 71 65 71 65 58 71 68 74 65 61 61 42 42 39 45 39 29 29 19 13 3 6 6 10 10 6 3 6 10 0 0 0 0 0 0 0 0 0 0 0 0
77 68 65 58 58 52 48 52 61 58 55 52 48 45 45 48 39 45 42 32 19 16 6 6 6 10 13 16 6 3 13 19 0 0 0 0 0 0 0 0 0 0 0
68 61 52 52 42 45 48 48 52 45 45 45 42 35 35 29 35 29 39 32 26 16 6 6 6 6 10 19 19 13 3 0 0 0 0 0 0 0 0 0 0 0 0
61 55 52 45 42 42 42 42 45 45 42 39 42 39 39 32 35 32 29 23 19 10 13 6 3 6 10 6 6 3 0 3 0 0 0 0 0 0 0 0 0 0 0
55 55 52 42 42 42 35 35 42 42 39 39 35 32 23 26 23 19 10 19 16 13 16 10 6 3 0 0 6 3 0 0 0 0 0 0 0 0 0 0 0 0 0
48 52 45 39 32 29 29 29 39 35 39 39 29 19 13 10 10 3 3 10 10 10 10 6 3 3 0 3 0 3 0 3 3 0 0 0 0 0 0 0 0 0 0
39 42 39 35 26 16 10 6 16 26 32 32 16 13 13 6 3 0 0 0 0 0 3 6 0 6 0 3 3 0 3 3 3 3 0 0 0 0 0 0 0 0 0
32 39 35 32 19 13 3 3 0 19 19 19 13 10 3 3 3 3 0 0 0 0 0 0 0 3 0 0 6 3 3 0 3 3 0 0 0 0 0 0 0 0 0
32 32 26 23 23 10 6 3 0 10 13 6 6 6 6 6 3 3 3 0 0 0 0 0 0 0 0 3 6 3 3 0 0 0 0 0 0 0 0 0 0 0 0
23 23 23 26 16 6 6 3 0 13 6 10 10 10 6 6 3 0 0 0 3 3 0 0 0 0 0 0 0 0 0 0 0 0 0 0 0 0 0 0 0 0 0
23 23 19 19 13 10 6 3 0 3 3 6 10 6 3 3 3 0 0 3 6 6 3 0 0 0 0 0 0 0 0 0 0 0 0 0 0 0 0 0 0 0 0

GEFSMA_con_cape1000_198.txt.gz
Probability
19 19 19 19 23 16 16 16 10 10 6 6 3 3 0 0 0 0 16 81 87 77 58 65 68 52 39 45 42 52 52 32 32 42 45 32 26 19 23 16 13 19 13
19 19 19 19 23 23 23 16 3 3 0 0 3 0 3 0 0 0 6 58 87 87 87 65 68 65 42 45 48 48 52 42 45 45 48 42 35 26 19 19 13 13 13
19 23 23 19 19 19 16 10 0 0 0 0 3 3 0 0 0 0 6 6 39 87 90 87 81 61 61 61 65 45 48 58 52 61 52 39 29 26 19 23 10 13 10
29 26 26 26 19 16 13 3 3 0 0 0 0 0 0 0 0 0 0 3 3 6 58 90 87 84 68 68 71 68 65 58 61 58 45 45 29 19 23 16 10 16 10
32 29 29 23 26 13 6 3 6 0 3 0 0 0 0 0 0 0 0 3 3 3 3 29 87 90 81 74 71 71 58 55 55 48 35 29 35 35 19 10 13 13 13
32 32 29 26 29 16 10 0 3 3 3 0 3 3 3 3 0 0 0 0 0 3 0 3 19 39 77 84 87 81 81 61 52 45 45 42 35 32 23 16 10 6 0
35 29 35 26 23 16 13 10 6 6 3 3 3 3 0 0 0 0 0 0 0 0 0 0 0 3 10 65 77 81 84 77 71 58 45 45 42 48 39 19 16 13 10
29 29 23 19 19 16 10 10 10 10 6 6 3 0 0 0 0 0 0 0 0 0 0 0 0 0 0 0 3 48 71 74 74 68 52 48 48 42 39 39 29 16 16
35 32 19 19 16 13 16 10 10 6 6 0 0 0 0 0 0 0 0 0 0 0 0 0 0 0 0 0 0 0 42 58 68 68 58 58 39 35 29 29 32 23 16
26 26 23 23 16 19 16 13 13 0 0 0 0 0 0 0 0 0 0 0 0 0 0 0 0 0 0 0 0 0 3 16 35 55 65 65 48 35 29 29 29 26 23
32 32 26 23 23 16 10 13 10 0 3 3 0 0 0 0 0 0 0 0 0 0 0 0 0 0 0 0 0 0 3 3 3 23 32 45 45 42 32 26 23 23 23
35 26 29 26 23 26 19 19 13 13 3 6 3 0 0 0 0 0 0 0 0 0 0 0 0 0 0 0 0 6 3 0 0 0 6 29 39 39 35 29 23 19 19
35 29 29 23 23 23 29 29 26 16 10 6 3 3 0 0 0 0 0 0 0 0 0 0 0 0 0 0 0 3 3 0 0 0 0 0 0 6 6 16 19 19 23
26 23 23 23 26 23 26 23 19 10 6 6 10 6 3 0 0 0 0 0 0 0 0 0 0 0 0 0 0 0 0 0 0 0 0 0 0 0 0 0 6 13 13
26 23 23 26 26 19 23 16 16 10 10 10 3 3 3 3 3 3 0 0 0 0 0 0 0 0 0 0 0 0 0 0 0 0 0 0 0 0 0 0 0 0 0
29 26 26 23 26 16 16 16 13 13 10 6 6 3 3 3 3 3 3 0 0 0 0 0 0 0 0 3 0 0 0 0 0 0 0 0 0 0 0 0 0 0 0
29 29 23 23 23 23 19 16 16 10 13 10 6 6 6 3 3 3 0 0 0 0 0 0 0 0 0 0 0 0 0 0 0 0 0 0 0 0 0 0 0 0 0
26 26 26 23 23 23 23 16 13 13 13 6 6 6 6 6 3 0 0 0 0 0 0 0 0 0 0 0 0 0 0 0 0 0 0 0 0 0 0 0 0 0 0
29 29 26 23 23 23 19 16 13 10 10 6 6 6 3 3 3 0 0 0 0 0 0 0 0 0 0 0 0 0 0 0 0 0 0 0 0 0 0 0 0 0 0
26 26 23 23 19 19 16 10 13 10 3 3 3 3 3 3 3 3 0 0 0 0 0 0 0 0 0 0 0 0 0 0 0 0 0 0 0 0 0 0 0 0 0
23 23 19 16 16 13 10 6 6 6 3 3 3 3 3 3 3 3 0 0 0 0 0 0 0 0 0 0 0 0 0 0 0 0 0 0 0 0 0 0 0 0 0
16 16 16 13 6 6 6 6 6 3 3 3 3 3 3 3 3 0 0 0 0 0 0 0 0 0 0 0 0 0 0 0 0 0 0 0 0 0 0 0 0 0 0
16 16 10 6 6 6 6 6 0 3 3 3 3 3 3 3 3 3 0 0 0 0 0 0 0 0 0 0 0 0 0 0 0 0 0 0 0 0 0 0 0 0 0
13 10 6 6 6 6 6 3 3 3 3 3 3 3 3 3 3 3 3 3 0 0 0 0 0 0 0 0 0 0 0 0 0 0 0 0 0 0 0 0 0 0 0
13 10 6 6 6 6 6 3 0 3 3 3 3 3 3 3 3 3 3 3 3 0 0 0 0 0 0 0 0 0 0 0 0 0 0 0 0 0 0 0 0 0 0
6 6 6 6 6 6 3 3 0 3 3 3 3 3 3 3 3 0 3 3 3 3 0 0 0 0 0 0 0 0 0 0 0 0 0 0 0 0 0 0 0 0 0

GEFSMA_con_cape1000_204.txt.gz
Probability
16 16 19 13 16 13 10 6 6 10 6 3 0 3 6 6 6 6 19 48 77 87 61 52 42 39 32 39 39 32 26 19 35 35 29 26 23 26 19 13 10 10 10
16 16 13 16 16 13 6 6 10 6 0 3 3 0 3 6 10 6 6 32 65 84 81 74 52 42 42 32 32 35 26 23 32 42 35 32 26 19 16 16 10 16 3
13 13 13 16 13 13 6 3 3 0 0 0 0 0 0 6 10 6 6 13 32 65 81 71 71 55 52 45 45 42 42 52 52 45 35 35 29 23 16 10 16 13 13
10 10 13 13 10 10 6 6 0 0 0 0 0 0 0 0 6 10 10 10 16 10 42 71 71 68 61 65 48 48 42 45 52 52 39 32 23 19 16 13 6 13 3
19 19 19 16 10 6 3 0 0 0 0 0 0 6 3 3 3 6 6 3 3 10 10 16 61 61 61 58 58 55 52 48 42 42 35 29 19 26 19 13 3 3 3
19 16 23 16 16 6 3 0 0 0 0 0 3 3 3 3 0 0 0 3 3 3 3 6 16 35 45 65 61 58 58 55 55 52 35 29 23 19 13 13 10 3 0
23 16 19 13 13 13 10 10 3 6 6 0 3 3 0 0 0 0 0 0 0 0 3 3 6 10 16 29 35 45 52 48 48 52 48 29 32 26 13 13 6 6 6
16 23 13 13 13 13 6 6 6 6 3 0 0 0 0 0 0 0 0 0 0 0 3 0 0 6 10 13 10 16 32 48 52 52 55 48 39 35 26 13 13 3 3
19 16 10 13 13 13 6 6 6 3 0 0 0 0 0 0 0 0 0 0 0 0 0 0 0 0 0 3 3 0 13 26 42 39 48 42 45 29 23 23 13 10 6
26 19 10 10 10 6 0 0 0 0 0 0 0 0 0 0 0 0 0 0 0 0 0 0 0 0 0 0 0 0 0 3 13 26 35 39 32 29 23 19 19 19 13
16 16 13 10 6 6 0 3 0 0 0 0 0 0 0 0 0 0 0 0 0 0 0 0 0 0 0 0 0 0 0 0 0 6 13 26 35 29 32 29 29 26 26
10 10 10 6 6 6 6 3 0 0 0 0 0 0 0 0 0 0 0 0 0 0 0 0 0 0 0 0 0 0 0 0 0 0 3 10 16 26 26 26 32 26 29
10 10 10 6 6 6 6 6 3 3 0 0 0 0 0 0 0 0 0 0 0 0 0 0 0 0 0 0 0 0 0 0 0 0 0 0 0 3 3 16 19 19 13
16 13 6 10 10 13 19 16 13 10 6 3 3 0 0 0 0 0 0 0 0 0 0 0 0 0 0 0 0 0 0 0 0 0 0 0 0 0 0 0 3 3 3
19 23 23 16 16 16 13 13 13 10 10 6 3 0 0 0 0 0 0 0 0 0 0 0 0 0 0 0 0 0 0 0 0 0 0 0 0 0 0 0 0 0 0
26 26 26 23 19 16 16 16 10 13 10 6 6 6 3 3 3 0 0 0 0 0 0 0 0 0 0 0 0 0 0 0 0 0 0 0 0 0 0 0 0 0 0
29 26 23 19 16 16 16 13 10 10 10 6 6 6 6 6 0 0 0 0 0 0 0 0 0 0 0 0 0 0 0 0 0 0 0 0 0 0 0 0 0 0 0
26 23 19 16 19 19 19 13 10 10 6 6 10 3 3 3 3 3 0 0 0 0 0 0 0 0 0 0 0 0 0 0 0 0 0 0 0 0 0 0 0 0 0
23 19 19 16 16 19 23 16 10 10 6 6 10 3 3 3 3 3 3 3 0 0 0 0 0 0 0 0 0 0 0 0 0 0 0 0 0 0 0 0 0 0 0
23 19 16 16 16 16 19 10 10 6 6 6 3 3 3 3 3 3 3 3 3 0 0 0 0 0 0 0 0 0 0 0 0 0 0 0 0 0 0 0 0 0 0
19 19 13 10 10 13 13 10 10 6 6 6 3 3 3 3 3 3 3 3 3 3 0 0 0 0 0 0 0 0 0 0 0 0 0 0 0 0 0 0 0 0 0
19 13 13 13 10 10 10 6 6 6 6 3 3 3 3 3 3 3 3 3 3 3 3 0 0 0 0 0 0 0 0 0 0 0 0 0 0 0 0 0 0 0 0
16 13 13 10 10 10 3 3 0 6 6 3 3 3 3 3 3 3 3 0 0 0 3 3 0 0 0 0 0 0 0 0 0 0 0 0 0 0 0 0 0 0 0
16 13 6 6 6 6 3 3 0 0 3 3 3 3 3 3 3 3 3 3 3 3 0 0 3 3 0 0 0 0 0 0 0 0 0 0 0 0 0 0 0 0 0
13 6 6 6 6 6 3 3 0 3 3 3 3 3 3 3 3 3 3 3 3 3 3 0 0 0 0 0 0 0 0 0 0 0 0 0 0 0 0 0 0 0 0
6 6 6 6 6 6 6 3 0 3 3 3 3 3 3 3 3 0 0 3 3 3 3 3 0 0 0 0 0 0 0 0 0 0 0 0 0 0 0 0 0 0 0

GEFSMA_con_cape1000_210.txt.gz
Probability
68 65 74 71 48 45 29 42 32 48 35 26 19 16 13 10 10 13 35 61 48 52 48 52 48 48 42 45 35 35 32 29 32 35 29 32 29 32 29 23 16 26 13
68 71 71 68 55 45 42 42 39 48 45 39 26 29 29 16 16 19 23 48 58 61 61 52 48 39 39 42 42 32 35 35 26 35 35 32 29 23 23 19 23 23 13
87 71 68 58 55 55 52 55 45 35 35 32 29 32 32 42 23 26 16 35 45 52 71 68 61 48 48 39 45 52 35 39 35 26 29 35 29 19 29 19 16 16 19
81 87 68 58 65 55 61 65 58 52 42 35 45 35 35 52 32 26 16 29 32 32 48 61 61 55 45 42 45 48 45 48 48 42 39 39 29 26 26 16 19 19 23
81 81 81 71 77 65 65 58 61 61 48 61 35 61 32 39 42 26 26 19 26 48 52 55 58 55 48 52 52 52 52 45 39 35 35 35 32 32 23 13 13 13 10
87 81 87 90 68 71 81 74 74 84 71 77 19 32 39 29 35 32 35 19 32 29 26 29 52 48 39 55 58 48 48 45 39 35 29 32 32 29 23 13 10 6 3
81 87 77 94 87 87 87 71 65 65 61 65 61 58 23 29 35 42 39 32 23 26 29 35 55 55 48 29 26 45 48 42 39 42 45 39 29 32 29 13 10 6 6
84 81 90 87 84 90 94 87 90 74 65 61 52 42 45 32 42 19 39 39 29 26 26 23 55 58 52 45 19 13 32 39 42 48 45 39 32 32 26 26 16 10 6
84 84 87 77 81 77 81 84 87 81 68 61 52 45 35 32 16 16 32 26 35 39 42 45 32 42 45 45 39 6 19 23 26 32 45 45 32 35 29 19 19 19 13
84 81 81 84 84 77 87 77 61 77 81 61 61 68 52 42 48 32 26 13 23 45 29 13 16 29 45 48 39 13 10 10 19 26 26 32 42 32 26 23 19 19 23
84 81 81 84 84 81 77 71 77 74 68 65 55 58 55 58 39 29 29 26 23 23 16 16 10 19 35 35 29 19 6 0 0 3 16 19 29 29 29 29 26 19 19
84 81 71 81 74 77 71 74 77 74 65 68 61 32 35 39 39 39 42 35 35 19 13 13 16 26 23 13 13 3 6 0 0 0 0 6 13 13 19 23 19 19 19
71 81 68 68 68 68 65 65 65 71 65 55 48 42 29 26 29 32 29 16 23 13 19 6 6 13 3 10 13 3 0 0 0 0 0 0 0 0 3 3 6 13 16
71 65 61 58 65 68 65 65 61 52 58 52 45 45 42 29 29 29 29 26 13 10 3 3 6 3 10 6 3 0 3 0 0 0 0 0 0 0 0 0 0 0 3
65 65 61 65 68 68 68 61 58 55 55 55 48 45 42 32 35 16 32 35 23 0 10 6 10 6 13 13 3 10 10 3 0 0 0 0 0 0 0 0 0 0 0
61 65 61 61 58 61 61 55 58 58 55 45 48 42 32 26 39 32 32 26 29 26 13 3 6 0 10 3 0 6 3 0 0 0 0 0 0 0 0 0 0 0 0
61 55 55 55 55 55 48 45 42 45 45 45 35 32 32 32 32 29 32 23 23 23 13 6 6 10 16 13 10 10 13 13 6 0 0 0 0 0 0 0 0 0 0
52 52 52 52 52 48 45 45 42 39 39 39 29 29 29 23 29 32 29 26 23 19 23 16 10 13 10 10 10 10 3 3 3 0 0 0 0 0 0 0 0 0 0
48 48 52 52 48 45 45 45 42 39 39 32 26 26 26 26 29 29 29 23 16 13 23 19 13 16 13 10 6 6 3 6 3 0 0 0 0 0 0 0 0 0 0
48 48 48 45 45 45 42 42 39 39 39 32 26 23 16 16 26 26 23 19 16 19 19 13 6 6 6 6 6 6 3 6 3 0 0 0 0 0 0 0 0 0 0
39 39 35 39 32 32 29 32 26 29 29 26 23 19 19 16 13 16 3 13 10 10 13 6 6 3 3 3 3 3 3 6 6 3 3 3 0 0 0 0 0 0 0
29 29 29 26 26 19 13 10 13 16 23 23 26 16 13 13 3 3 3 3 6 6 10 6 6 3 3 3 3 3 3 3 3 6 3 0 0 0 0 0 0 0 0
23 23 23 26 23 19 10 6 6 16 16 19 16 16 13 6 3 6 3 0 0 0 0 6 6 6 3 3 3 3 3 3 3 3 3 3 0 0 0 0 0 0 0
23 19 19 23 19 16 6 3 0 13 13 13 13 10 13 13 3 3 3 3 3 3 3 3 6 6 3 3 3 3 3 3 3 3 3 3 0 0 0 0 0 0 0
16 16 16 16 16 16 10 3 0 10 6 6 10 10 10 10 3 3 3 3 3 3 3 0 0 0 0 0 3 3 3 3 3 3 3 0 0 0 0 0 0 0 0
16 16 16 16 16 13 10 3 0 10 6 6 6 6 3 3 3 3 3 3 3 3 3 3 3 3 3 3 0 3 3 3 3 3 3 0 0 0 0 0 0 0 0

GEFSMA_con_cape1000_216.txt.gz
Probability
97 100 97 97 87 87 87 90 84 81 74 65 55 42 45 48 45 35 29 74 84 68 61 48 52 42 35 35 32 26 23 26 32 45 39 32 26 29 23 19 16 19 19
97 94 100 97 94 84 84 84 87 87 87 84 71 55 48 39 48 35 35 65 74 74 65 61 42 35 35 45 39 39 32 26 32 42 39 35 32 39 26 26 23 19 19
94 94 94 97 94 90 84 90 87 84 84 81 77 55 58 55 52 52 45 48 42 68 71 68 65 52 39 45 45 45 39 35 45 45 39 29 29 35 32 26 13 19 19
90 94 94 90 94 90 100 97 94 90 84 87 84 77 81 84 61 55 65 61 39 26 45 65 65 65 48 42 45 42 42 45 42 35 35 39 29 29 29 23 19 19 13
87 94 94 94 90 90 94 87 94 94 90 97 81 90 81 84 74 48 52 55 65 68 35 42 68 71 52 48 48 39 39 39 42 32 32 26 23 19 23 26 19 23 23
90 90 94 90 90 94 94 97 97 100 90 90 58 52 68 81 74 68 58 52 52 48 42 26 29 32 58 52 48 45 39 45 35 39 29 29 26 23 19 16 13 10 6
90 94 94 90 90 94 94 84 90 84 87 100 87 71 68 65 74 71 65 55 42 39 39 39 23 29 13 35 39 48 42 39 42 35 32 29 32 29 19 16 10 10 6
94 87 94 90 90 90 84 77 77 84 87 87 87 68 52 61 61 23 52 52 35 42 32 19 32 48 35 6 6 26 39 42 45 42 35 32 32 29 23 19 13 13 10
97 100 90 90 90 90 84 87 77 74 68 77 74 68 45 32 42 32 39 32 55 42 32 32 26 39 35 26 23 6 19 29 42 35 35 29 32 29 19 19 19 16 16
90 94 84 87 90 81 77 74 68 74 71 61 68 65 55 61 42 32 26 35 42 45 35 29 26 26 29 26 26 13 6 10 19 29 35 35 26 26 23 26 23 23 16
87 90 90 87 84 77 71 68 74 68 74 61 52 61 65 61 45 29 13 19 29 29 29 35 29 23 26 19 19 16 6 6 3 6 19 23 19 23 23 23 23 19 16
87 87 81 74 77 71 71 65 68 68 58 61 65 52 48 48 48 29 19 19 16 23 26 26 19 19 26 16 10 6 6 3 0 0 3 10 13 16 16 19 16 19 23
84 84 77 74 74 74 68 65 71 58 58 58 61 65 52 48 45 32 23 13 13 10 16 16 10 13 6 19 13 3 3 0 0 0 0 0 0 0 3 13 10 10 10
81 77 74 74 74 71 61 58 61 58 61 58 45 55 42 39 35 32 19 19 10 6 10 3 3 3 0 3 3 0 3 0 0 0 0 0 0 0 0 0 6 6 6
68 74 71 68 71 68 65 61 55 58 55 48 48 45 39 35 39 26 23 23 13 6 10 3 10 3 13 3 3 3 13 3 0 0 0 0 0 0 0 0 0 0 0
68 71 68 65 61 61 58 61 58 55 48 48 42 39 32 32 29 32 29 23 19 10 6 10 13 13 6 0 0 3 6 3 0 0 0 0 0 0 0 0 0 0 0
61 65 58 58 61 58 55 55 55 55 48 45 39 39 32 29 23 23 23 26 19 16 6 6 6 6 10 6 3 6 3 3 3 0 0 0 0 0 0 0 0 0 0
58 55 58 61 55 52 52 52 52 52 45 45 39 32 29 29 26 26 23 23 23 13 10 3 3 6 6 6 10 10 0 0 0 0 0 0 0 0 0 0 0 0 0
55 55 52 45 45 48 48 52 52 52 45 39 35 39 32 26 23 23 23 26 23 13 13 6 3 3 6 6 6 3 3 3 3 0 0 0 0 0 0 0 0 0 0
45 42 39 39 39 29 39 39 39 35 29 32 26 23 23 19 19 23 23 19 19 10 10 3 3 3 3 6 3 3 3 3 3 3 3 0 0 0 0 0 0 0 0
35 32 29 29 26 23 23 23 23 26 23 19 19 19 19 16 13 13 10 16 16 10 6 6 3 3 3 3 3 3 3 3 3 3 3 3 0 0 0 0 0 0 0
35 26 26 23 23 23 19 19 19 16 16 16 16 16 16 16 6 3 3 6 6 6 6 6 3 3 3 3 3 3 3 3 3 3 3 3 0 0 0 0 0 0 0
26 19 19 19 19 16 16 6 10 16 16 16 16 16 13 6 10 10 3 3 3 3 0 6 3 3 3 3 3 3 3 3 3 3 3 3 3 0 0 0 0 0 0
19 19 19 16 16 16 10 6 6 10 16 16 16 13 16 16 10 3 6 6 6 3 3 3 3 3 3 3 3 3 3 3 3 3 3 3 3 3 0 0 0 0 0
19 16 16 16 16 13 10 6 6 13 16 16 16 10 13 10 6 3 3 6 6 6 3 3 3 3 3 3 0 3 3 3 0 3 3 3 3 3 0 0 0 0 0
16 16 16 16 16 16 6 3 3 13 16 16 16 6 6 6 3 3 3 3 3 3 3 3 3 3 3 3 0 0 0 3 3 3 3 3 3 3 0 0 0 0 0